STARLINK-32920, 62925

Orbit data source: Space-Track

STARLINK-32920, 62925 is a payload satellite owned by SpaceX/Seattle (US) in LEO that was launched on Sat, 08 Feb 2025 UTC via an FALCON 9 launch vehicle from the Air Force Eastern Test Range (AFETR). Payload-class satellites include a variety of spacecraft equipped with specific instruments for various scientific and technological missions. These include communications satellites like Starlink; space stations such as the ISS; scientific satellites like the Hubble; Earth observation satellites from companies like Planet Labs, Umbra, and HawkEye 360; GPS; miniature CubeSats for education and research; and military/defense satellites.

Loading next visibility...
Identifier
62925, 2025-027U
Orbit
LEO
Country
Flag of USUS
Related business
Manufacturer
SpaceX/Seattle
Mission
Operational Commercial Communications
Bus & Motor
STARLINK V2M, Unknown motor
Mass
730 kg wet, ~700 kg dry
Launch date (UTC)
2025-02-08 (1 year ago)
Launch vehicle
FALCON 9
Launch site
Air Force Eastern Test Range (AFETR)
Object type
Payload
Rocket body
Debris
Shape & HBR
Box + 2 Pan, 17.7 m
Radar Cross Section
33.884 m², Large (>1 m²)

Expand to show TLE details & history
Last TLE update: 11 hours ago

TLE from 11 hours ago
0 STARLINK-32920
1 62925U 25027U   26036.13235837  .00039551  00000-0  14378-2 0  9997
2 62925  42.9997 312.6855 0001243  44.1442 315.9508 15.27610172 56560
Epoch: 2026-02-05T03:10Z
TLE epoch observation values (Epoch: 2026-02-05T03:10:35.763Z)
Latitude
-0.00005°
Longitude
129.74746°
Altitude
482.121 km
Speed
7.627 km/s
True Right ascension
20h 50m 44s
True Declination
0° 00' 00"
Sunlit
Object was in daylight at epoch
Visualization orbit readout
Latitude
Unknown
Longitude
Unknown
Altitude
Unknown
Speed
Unknown
Apparent Right ascension
Unknown
Apparent Declination
Unknown
Sunlit
N/A
Visualization observer readout
Local Sidereal Time
15:58:42
Azimuth
Unknown
Elevation
Unknown
Doppler factor
Unknown
Orbital elements
Apogee altitude
485.757 km
Perigee altitude
484.051 km
Semi-major axis
6,863.041 km
Eccentricity
0.00012
Inclination
42.9997°
RAAN
312.6855°
Arg. of periapsis
44.1442°
True anomaly
315.9409°
Mean anomaly
315.9508°
Eccentric anomaly
315.94585°
Mean motion
3.81741 °/min
Orbital period
94.3 mins
BSTAR
0.0014378
Loading maneuver chart data...
Computing Atmospheric mass density...
Loading historical data...
Loading historical data...
Loading historical data...
Loading historical data...
Loading historical data...
Loading historical data...
Loading historical data...

Documentation

Showing up to 5 results
|